Skip Page Navigation
NASA JPL Caltech
NASA Logo - Jet Propulsion Laboratory + View the NASA Portal
+ Center for Near-Earth Object Studies
JPL Home Earth Solar System Stars & Galaxies Technology
JPL Solar System Dynamics
BODIES ORBITS EPHEMERIDES TOOLS PHYSICAL DATA DISCOVERY FAQ SITE MAP
IMPORTANT: The SSD Announcement email list is now available. Major changes are coming in the near future, including possible hostname and/or URL changes. To be notified of such changes, subscribe to this email list.

Please visit this page for more details.


JPL Small-Body Database Browser
Search: [ help ]  
(2015 DR)
Classification: Apollo [NEO]          SPK-ID: 3710716
Ephemeris | Orbit Diagram | Orbital Elements | Mission Design | Physical Parameters | Close-Approach Data ]

[ hide orbit diagram ]

For accurate long-term ephemerides, please instead use our Horizons system.This orbit viewer was implemented using two-body methods, and hence should not be used for determining accurate long-term trajectories (over several years or decades) or planetary encounter circumstances.


[ revert to old Java-based viewer ]

Orbital Elements at Epoch 2457072.5 (2015-Feb-19.0) TDB
Reference: JPL 13 (heliocentric ecliptic J2000)
 Element Value Uncertainty (1-sigma)   Units 
e .4945845569983575 0.00073166  
a 1.286983910263496 0.0012572 au
q .6504615431418109 0.00030623 au
i 5.528241564290457 0.0080601 deg
node 340.5402228526398 0.0023052 deg
peri 274.2767237978793 0.0053511 deg
M 315.2555105685476 0.089618 deg
tp 2457138.781932035212
(2015-Apr-26.28193203)
0.035631 TDB
period 533.2834464282272
1.46
0.78143
0.002139
d
yr
n .6750631440206369 0.00098918 deg/d
Q 1.923506277385181 0.001879 au
  Orbit Determination Parameters
   # obs. used (total)      53  
   data-arc span      11 days  
   first obs. used      2015-02-16  
   last obs. used      2015-02-27  
   planetary ephem.      DE431  
   SB-pert. ephem.      SB431-N16  
   condition code      8  
   norm. resid. RMS      .54381  
   source      ORB  
   producer      Otto Matic  
   solution date      2017-Apr-06 08:35:36  

Additional Information
 Earth MOID = .00332759 au 
 Jupiter MOID = 3.14895 au 
 T_jup = 4.904 
[ show covariance matrix ]

Ephemeris | Orbit Diagram | Orbital Elements | Mission Design | Physical Parameters | Close-Approach Data ]

Physical Parameter Table
Parameter Symbol Value Units Sigma Reference Notes
absolute magnitude H 23.9   n/a MPO328618  

[ show close-approach data ]
Ephemeris | Orbit Diagram | Orbital Elements | Mission Design | Physical Parameters | Close-Approach Data ]
ABOUT SSD CREDITS/AWARDS PRIVACY/COPYRIGHT GLOSSARY LINKS
FirstGov 2019-Oct-21 16:42 UT
(server date/time)  
NASA Home Page
Site Manager:   Ryan S. Park
Webmaster  Alan B. Chamberlin